TimeCDT,TemperatureF,Dew PointF,Humidity,Sea Level PressureIn,VisibilityMPH,Wind Direction,Wind SpeedMPH,Gust SpeedMPH,PrecipitationIn,Events,Conditions,WindDirDegrees,DateUTC
12:53 AM,53.1,48.9,86,29.95,10.0,Calm,Calm,-,N/A,,Clear,0,2012-10-03 05:53:00
1:53 AM,53.1,48.0,83,29.97,10.0,Calm,Calm,-,N/A,,Clear,0,2012-10-03 06:53:00
2:53 AM,53.1,48.0,83,29.97,10.0,South,4.6,-,N/A,,Clear,170,2012-10-03 07:53:00
3:53 AM,53.1,48.0,83,29.97,10.0,South,5.8,-,N/A,,Clear,170,2012-10-03 08:53:00
4:53 AM,55.0,48.9,80,29.99,10.0,South,5.8,-,N/A,,Clear,170,2012-10-03 09:53:00
5:53 AM,54.0,48.9,83,30.01,10.0,South,6.9,-,N/A,,Clear,170,2012-10-03 10:53:00
6:53 AM,53.1,48.0,83,30.03,10.0,South,5.8,-,N/A,,Partly Cloudy,180,2012-10-03 11:53:00
7:53 AM,55.0,48.9,80,30.03,10.0,South,6.9,-,N/A,,Clear,170,2012-10-03 12:53:00
8:53 AM,61.0,54.0,78,30.05,10.0,South,5.8,-,N/A,,Clear,190,2012-10-03 13:53:00
9:53 AM,69.1,55.0,61,30.06,10.0,SSW,9.2,-,N/A,,Clear,210,2012-10-03 14:53:00
10:53 AM,73.0,54.0,51,30.05,10.0,SSW,10.4,-,N/A,,Clear,210,2012-10-03 15:53:00
11:53 AM,75.0,52.0,44,30.06,10.0,SW,12.7,20.7,N/A,,Clear,220,2012-10-03 16:53:00
12:53 PM,75.9,54.0,46,30.04,10.0,SW,11.5,23.0,N/A,,Clear,220,2012-10-03 17:53:00
1:53 PM,77.0,55.0,47,30.03,10.0,SW,12.7,18.4,N/A,,Mostly Cloudy,220,2012-10-03 18:53:00
2:53 PM,75.9,55.0,48,30.02,10.0,South,10.4,18.4,N/A,,Scattered Clouds,180,2012-10-03 19:53:00
3:53 PM,77.0,55.0,47,30.02,10.0,SSW,12.7,-,N/A,,Scattered Clouds,200,2012-10-03 20:53:00
4:53 PM,75.9,54.0,46,30.02,10.0,SSW,10.4,-,N/A,,Clear,200,2012-10-03 21:53:00
5:53 PM,73.9,55.0,52,30.04,10.0,South,6.9,-,N/A,,Clear,190,2012-10-03 22:53:00
6:53 PM,70.0,55.9,61,30.05,10.0,South,6.9,-,N/A,,Clear,170,2012-10-03 23:53:00
7:53 PM,66.9,57.0,70,30.06,10.0,SSE,6.9,-,N/A,,Clear,160,2012-10-04 00:53:00
8:53 PM,64.9,55.9,73,30.09,10.0,South,5.8,-,N/A,,Clear,180,2012-10-04 01:53:00
9:53 PM,63.0,55.0,75,30.10,10.0,South,4.6,-,N/A,,Clear,180,2012-10-04 02:53:00
10:53 PM,63.0,55.0,75,30.11,10.0,South,5.8,-,N/A,,Clear,170,2012-10-04 03:53:00
11:53 PM,62.1,54.0,75,30.13,10.0,South,4.6,-,N/A,,Clear,190,2012-10-04 04:53:00